Regional Weather Roundup
Issued by NWS State College, PA

Home | Current Version | Previous Version | Text Only | Print | Product List | Glossary On
Versions: 1 2 3 4 5 6 7 8 9 10 11 12 13 14 15 16 17 18 19 20 21 22 23 24 25 26 27 28 29 30 31 32 33 34 35 36 37 38 39 40 41 42 43 44 45 46 47 48 49 50
000
ASUS41 KCTP 230810
RWRCTP

REGIONAL WEATHER ROUNDUP
NATIONAL WEATHER SERVICE STATE COLLEGE PA
400 AM EDT TUE SEP 23 2014

Note: "fair" indicates few or no clouds below 12,000 feet with no
significant weather and/or obstructions to visibility.

* = STATION THAT DOES NOT REPORT PRECIPITATION /E.G. RAIN...SNOW...ETC/
    THUNDER OR FOG.

PAZ002>004-007>009-013>016-020>023-029>032-230900-
WESTERN PENNSYLVANIA

CITY           SKY/WX    TMP DP  RH WIND       PRES   REMARKS
ERIE           CLEAR     47  42  83 S7        30.27F
MEADVILLE      CLEAR     41  38  89 CALM      30.28S
FRANKLIN*      CLEAR     41  37  87 CALM      30.29S
NEW CASTLE     FOG       37  37 100 CALM      30.31S VSB 1/2
BEAVER COUNTY  NOT AVBL
BUTLER*        CLEAR     39  36  87 CALM      30.31S
PITTSBURGH INT CLEAR     42  39  89 CALM      30.29S
PITTSBURGH     CLEAR     47  39  74 CALM      30.28F
INDIANA*       MOCLDY    39  39 100 CALM      30.32S
LATROBE        CLEAR     39  39 100 CALM      30.30S
WASHINGTON CO* CLEAR     36  32  87 CALM      30.30F
$$

PAZ004>006-010>012-017>019-024>028-033>037-041-042-045-046-049>053-230900-
CENTRAL PENNSYLVANIA

CITY           SKY/WX    TMP DP  RH WIND       PRES   REMARKS
BRADFORD       CLEAR     38  36  92 CALM      30.27R
DUBOIS         CLEAR     40  38  93 CALM      30.27R
CLEARFIELD     CLEAR     41  40  96 W3        30.28R
JOHNSTOWN      CLEAR     42  37  82 CALM      30.27S
ALTOONA        CLEAR     43  39  86 CALM      30.27S
STATE COLLEGE    N/A     42  40  94 CALM      30.27R
WILLIAMSPORT   CLEAR     42  39  89 CALM      30.26R
SELINSGROVE    CLEAR     41  39  93 NW3       30.27R
FT INDIANTOWN  CLEAR     44  44  99 N2        30.25R
CAPITAL CITY   CLEAR     48  42  80 W6        30.26R
HARRISBURG     CLEAR     49  42  77 NW3       30.25R
YORK           CLEAR     42  40  92 NW3       30.26R
$$

PAZ038>040-043-044-047-048-054-055-060>062-067>071-230900-
EASTERN PENNSYLVANIA

CITY           SKY/WX    TMP DP  RH WIND       PRES   REMARKS
SCRANTON       CLEAR     42  39  89 CALM      30.24R
MOUNT POCONO   CLEAR     45  37  73 N14G25    30.20R
ALLENTOWN      CLEAR     45  38  76 W6        30.24R
QUAKERTOWN*    SUNNY     39  37  93 CALM      30.24S
READING        CLEAR     45  40  82 NW5       30.23S
LANCASTER      CLEAR     46  40  79 CALM      30.25R
COATESVILLE    SUNNY     48  41  76 NW7       30.24R
POTTSTOWN      CLEAR     43  40  89 CALM      30.25S
BLUE BELL      CLEAR     43  41  93 CALM      30.22F
DOYLESTOWN     CLEAR     43  40  89 CALM      30.22S
WILLOW GROVE   NOT AVBL
NORTH PHILA    PTCLDY    52  38  58 NW3       30.24S
PHILADELPHIA   PTCLDY    52  41  66 NW3       30.24S
$$



USA.gov is the U.S. government's official web portal to all federal, state and local government web resources and services.